CAPE
0 0 0 0 0 0 0 0 0 0 0 0 0 0 3 86 97 44 0 0 0 0 0 13 12 0 0 0 8 41 119 180 292 292 146 0 0 0 0 0 0 0 0 0 0 0 0 0 0
0 0 0 0 0 0 0 0 0 0 0 0 0 0 25 100 49 79 5 0 0 0 0 0 0 0 0 0 0 27 68 166 263 281 201 10 0 0 0 0 0 0 0 0 0 0 0 0 0
0 0 0 0 0 0 0 0 0 0 0 0 0 0 53 79 65 74 42 0 0 0 0 0 0 0 0 0 0 8 47 110 214 284 243 70 0 0 0 0 0 0 0 0 0 0 0 0 0
0 0 0 0 0 0 0 0 0 0 0 0 0 4 77 20 81 35 4 0 0 0 0 0 0 0 0 0 0 0 19 86 125 239 222 113 35 0 0 0 0 0 0 0 0 0 0 0 3
0 0 0 0 0 0 0 0 0 0 0 0 0 11 72 17 34 37 0 0 0 0 0 0 0 0 0 0 0 0 0 29 109 176 136 89 25 0 0 0 0 0 0 0 0 0 0 17 42
0 0 0 0 0 0 0 0 0 0 0 0 0 16 63 67 55 9 0 0 0 0 0 0 5 0 0 0 0 0 0 0 49 136 69 20 0 0 0 0 0 0 0 0 10 2 17 43 67
0 0 0 0 0 0 0 0 0 0 0 0 0 0 3 74 175 33 0 0 0 0 0 0 0 0 0 0 0 0 0 0 0 0 0 0 0 0 0 0 0 0 0 0 20 25 33 50 66
0 0 0 0 0 0 0 0 0 0 0 0 0 2 11 12 341 200 0 0 0 0 0 0 0 0 0 0 0 0 0 0 0 0 0 0 0 0 0 0 0 0 0 0 13 37 49 71 84
0 0 0 0 0 0 0 0 0 0 0 0 0 0 78 31 25 106 7 0 0 0 0 0 0 0 0 0 0 0 0 0 0 0 0 0 0 0 0 0 0 0 0 0 0 40 60 113 171
0 0 0 0 0 0 0 0 0 0 0 0 0 0 10 26 61 117 97 2 0 0 0 0 0 0 0 0 0 0 0 0 0 0 0 0 0 0 0 0 0 0 0 0 0 45 96 182 176
0 0 0 0 0 0 0 0 0 0 0 0 0 0 0 0 4 45 67 61 0 4 24 16 0 0 0 0 0 0 0 0 0 0 0 0 0 0 0 0 0 0 0 0 1 34 149 126 175
0 0 0 0 0 0 0 0 0 0 0 0 0 0 0 0 0 0 0 43 168 282 205 110 23 0 0 0 0 0 0 0 0 0 0 0 0 0 0 0 0 0 0 0 0 0 0 64 148
0 0 0 0 0 0 0 0 0 0 0 0 0 0 0 0 0 0 0 0 85 459 601 432 273 8 0 0 0 0 0 0 0 0 0 0 0 0 0 0 0 0 0 0 0 0 0 2 35
0 0 0 0 0 0 0 0 0 0 0 0 0 0 0 0 0 0 0 3 0 96 738 806 522 205 5 0 0 0 0 0 0 0 0 0 0 0 0 0 0 0 0 0 0 0 0 4 25
0 0 0 0 0 0 0 0 0 0 0 0 0 0 0 0 0 0 0 4 23 95 229 611 762 456 118 28 50 95 92 120 128 112 85 89 76 62 3 0 0 0 0 0 0 0 0 11 43
0 0 0 0 0 0 0 0 0 0 0 0 0 0 0 0 0 0 0 0 1 48 156 376 795 562 477 317 333 411 379 373 336 265 248 273 298 198 202 118 44 0 0 0 0 15 21 17 54
0 0 0 0 0 0 0 0 0 0 0 0 0 0 0 0 0 0 0 0 0 28 48 206 273 244 472 815 670 685 763 688 655 596 628 639 600 437 304 340 204 39 17 0 6 28 40 76 94
0 0 0 0 0 0 0 0 0 0 0 0 0 0 0 0 0 0 0 0 0 0 67 117 53 7 59 181 682 964 990 1050 1034 1157 1141 1050 982 761 517 605 418 263 81 48 32 66 96 151 210
0 0 0 0 0 0 0 0 0 0 0 0 0 0 0 0 0 0 0 0 0 0 0 9 11 77 217 635 644 848 979 952 786 563 486 1047 1184 1127 912 723 650 462 429 245 197 183 254 282 298
0 0 0 0 0 0 0 0 0 0 0 0 0 0 0 0 0 0 0 0 0 0 0 8 16 216 502 584 591 752 881 704 624 737 869 1004 1234 1419 1230 934 799 792 711 513 477 466 417 342 167
0 0 0 0 0 0 0 0 0 0 0 0 0 0 0 0 0 0 0 0 0 0 24 55 60 174 692 795 758 543 549 318 356 316 192 168 376 818 1011 984 1093 1013 875 854 794 655 601 565 283
0 0 0 0 0 0 0 0 0 0 0 0 0 0 0 0 0 0 0 0 0 0 5 68 135 290 587 367 259 310 7 1 0 0 30 72 447 807 1089 1210 1295 1308 1113 1110 975 785 655 556 546
0 0 0 0 0 0 0 0 0 0 0 0 0 0 0 0 0 0 0 0 0 0 0 0 13 46 158 228 72 19 0 0 0 0 0 137 410 1073 1383 1432 1397 1339 1172 1114 1057 856 743 615 616
0 0 0 0 0 0 0 0 0 0 0 0 0 0 0 0 0 0 0 0 0 0 0 0 0 26 19 4 0 0 0 0 0 0 16 282 757 1360 1544 1458 1363 1311 1201 1188 1098 932 768 665 542
0 0 0 0 0 0 0 0 0 0 0 0 0 0 0 0 0 0 0 0 0 0 0 2 0 0 0 0 0 0 0 0 0 0 104 327 1095 1372 1416 1358 1333 1285 1183 1243 1055 996 911 709 509
0 0 0 0 0 0 0 0 0 0 0 0 0 0 0 0 0 0 0 0 0 0 0 0 0 0 0 0 0 0 0 0 0 5 155 666 1293 1398 1313 1349 1205 1062 1191 1239 1049 1145 880 596 598
0 0 0 15 0 0 0 0 0 0 0 0 0 0 0 0 0 0 0 0 0 0 0 0 0 0 0 0 0 0 0 1 3 50 510 1042 1378 1374 1336 1273 1050 1006 1133 1089 1039 965 802 696 518
0 1 3 1 0 0 0 0 0 0 0 0 0 0 0 0 0 0 0 0 0 0 0 0 0 0 0 0 0 0 0 49 160 411 616 1067 1348 1416 1273 1032 925 1005 1151 908 848 736 638 552 356
0 0 1 0 0 0 2 0 0 0 0 0 0 0 0 0 0 0 0 0 0 249 4 32 60 6 0 0 0 3 57 254 711 798 731 898 1423 1361 1209 987 939 1124 982 756 683 562 353 234 81
0 0 0 0 0 0 1 0 0 0 0 0 0 0 0 0 0 0 0 0 24 633 647 584 501 277 137 86 100 179 516 856 978 899 778 1427 1464 1205 1040 1015 1008 1099 926 678 510 256 119 123 78
CIN
-0 -0 -0 -0 -0 -0 -0 -0 -0 -0 -0 -0 -0 -0 -10 -85 -75 -54 -25 -0 -0 -0 -0 -792 -750 -0 -0 -0 -621 -517 -455 -384 -342 -320 -332 -0 -0 -0 -0 -0 -0 -0 -0 -0 -0 -0 -0 -0 -0
-0 -0 -0 -0 -0 -0 -0 -0 -0 -0 -0 -0 -0 -0 -72 -87 -196 -291 -240 -0 -0 -0 -0 -0 -0 -0 -0 -0 -0 -562 -495 -412 -367 -349 -350 -128 -0 -0 -0 -0 -0 -0 -0 -0 -0 -0 -0 -0 -0
-0 -0 -0 -0 -0 -0 -0 -0 -0 -0 -0 -0 -0 -0 -84 -95 -226 -277 -431 -0 -0 -0 -0 -0 -0 -0 -0 -0 -0 -460 -537 -473 -410 -374 -358 -381 -0 -0 -0 -0 -0 -0 -0 -0 -0 -0 -0 -0 -0
-0 -0 -0 -0 -0 -0 -0 -0 -0 -0 -0 -0 -0 -20 -115 -174 -214 -310 -188 -0 -0 -0 -0 -0 -0 -0 -0 -0 -0 -0 -557 -509 -473 -433 -420 -424 -462 -0 -0 -0 -0 -0 -0 -0 -0 -0 -0 -0 -323
-0 -0 -0 -0 -0 -0 -0 -0 -0 -0 -0 -0 -0 -53 -75 -227 -290 -390 -0 -0 -0 -0 -0 -0 -0 -0 -0 -0 -0 -0 -0 -566 -502 -473 -485 -469 -496 -0 -0 -0 -0 -0 -0 -0 -0 -0 -0 -519 -454
-0 -0 -0 -0 -0 -0 -0 -0 -0 -0 -0 -0 -0 -19 -75 -212 -230 -201 -0 -0 -0 -0 -0 -0 -645 -0 -0 -0 -0 -0 -0 -43 -569 -496 -519 -483 -0 -0 -0 -0 -0 -0 -0 -0 -524 -317 -526 -479 -416
-0 -0 -0 -0 -0 -0 -0 -0 -0 -0 -0 -0 -0 -0 -69 -164 -218 -360 -0 -0 -0 -0 -0 -0 -0 -0 -0 -0 -0 -0 -0 -0 -0 -0 -0 -0 -0 -0 -0 -0 -0 -0 -0 -0 -518 -520 -499 -470 -419
-0 -0 -0 -0 -0 -0 -0 -0 -0 -0 -0 -0 -0 -24 -70 -158 -287 -409 -8 -0 -0 -0 -0 -0 -0 -0 -0 -0 -0 -0 -0 -0 -0 -0 -0 -0 -0 -0 -0 -0 -0 -0 -0 -0 -536 -505 -469 -437 -409
-0 -0 -0 -0 -0 -0 -0 -0 -0 -0 -0 -0 -0 -0 -34 -108 -283 -325 -197 -0 -0 -0 -0 -0 -0 -0 -0 -0 -0 -0 -0 -0 -0 -0 -0 -0 -0 -0 -0 -0 -0 -0 -0 -0 -0 -498 -450 -403 -368
-0 -0 -0 -0 -0 -0 -0 -0 -0 -0 -0 -0 -0 -0 -49 -122 -194 -168 -214 -157 -0 -0 -0 -0 -0 -0 -0 -0 -0 -0 -0 -0 -0 -0 -0 -0 -0 -0 -0 -0 -0 -0 -0 -0 -0 -498 -431 -374 -372
-0 -0 -0 -0 -0 -0 -0 -0 -0 -0 -0 -0 -0 -0 -0 -0 -20 -137 -160 -157 -0 -265 -415 -494 -0 -0 -0 -0 -0 -0 -0 -0 -0 -0 -0 -0 -0 -0 -0 -0 -0 -0 -0 -0 -49 -504 -408 -425 -402
-0 -0 -0 -0 -0 -0 -0 -0 -0 -0 -0 -0 -0 -0 -0 -0 -0 -0 -0 -113 -147 -206 -252 -356 -397 -0 -0 -0 -0 -0 -0 -0 -0 -0 -0 -0 -0 -0 -0 -0 -0 -0 -0 -0 -0 -0 -0 -488 -408
-0 -0 -0 -0 -0 -0 -0 -0 -0 -0 -0 -0 -0 -0 -0 -0 -0 -0 -0 -0 -190 -194 -251 -343 -540 -379 -0 -0 -0 -0 -0 -0 -0 -0 -0 -0 -0 -0 -0 -0 -0 -0 -0 -0 -0 -0 -0 -235 -516
-0 -0 -0 -0 -0 -0 -0 -0 -0 -0 -0 -0 -0 -0 -0 -0 -0 -0 -0 -112 -8 -165 -210 -288 -408 -504 -424 -0 -0 -0 -0 -0 -0 -0 -0 -0 -0 -0 -0 -0 -0 -0 -0 -0 -0 -0 -0 -469 -538
-0 -0 -0 -0 -0 -0 -0 -0 -0 -0 -0 -0 -0 -0 -0 -0 -0 -0 -0 -139 -146 -161 -189 -211 -262 -345 -443 -463 -500 -489 -470 -543 -543 -605 -672 -701 -755 -775 -737 -0 -0 -0 -0 -0 -0 -0 -0 -555 -491
-0 -0 -0 -0 -0 -0 -0 -0 -0 -0 -0 -0 -0 -0 -0 -0 -0 -0 -0 -0 -39 -137 -146 -170 -235 -299 -305 -359 -417 -443 -369 -474 -495 -534 -586 -606 -635 -691 -722 -677 -701 -0 -0 -0 -0 -528 -502 -495 -439
-0 -0 -0 -0 -0 -0 -0 -0 -0 -0 -0 -0 -0 -0 -0 -0 -0 -0 -0 -0 -0 -154 -150 -120 -137 -177 -210 -280 -286 -332 -344 -358 -444 -461 -442 -471 -505 -589 -643 -561 -623 -604 -565 -0 -326 -473 -407 -386 -354
-0 -0 -0 -0 -0 -0 -0 -0 -0 -0 -0 -0 -0 -0 -0 -0 -0 -0 -0 -0 -0 -22 -146 -80 -108 -81 -127 -79 -179 -257 -254 -300 -353 -363 -375 -347 -385 -485 -520 -457 -503 -481 -463 -453 -463 -395 -366 -323 -240
-0 -0 -0 -0 -0 -0 -0 -0 -0 -0 -0 -0 -0 -0 -0 -0 -0 -0 -0 -0 -0 -0 -0 -166 -176 -99 -137 -141 -162 -189 -177 -207 -259 -349 -359 -278 -256 -311 -369 -378 -419 -389 -296 -334 -355 -330 -282 -255 -200
-0 -0 -0 -0 -0 -0 -0 -0 -0 -0 -0 -0 -0 -0 -0 -0 -0 -0 -0 -0 -0 -0 -57 -184 -183 -140 -132 -135 -170 -190 -196 -270 -286 -287 -271 -268 -269 -291 -311 -341 -340 -276 -246 -266 -254 -225 -206 -186 -218
-0 -0 -0 -0 -0 -0 -0 -0 -0 -0 -0 -0 -0 -0 -0 -0 -0 -0 -0 -0 -0 -0 -173 -178 -178 -161 -129 -152 -241 -329 -360 -394 -324 -386 -395 -381 -370 -377 -336 -350 -266 -221 -212 -193 -183 -187 -168 -137 -187
-0 -0 -0 -0 -0 -0 -0 -0 -0 -0 -0 -0 -0 -0 -0 -0 -0 -0 -0 -0 -0 -0 -149 -198 -180 -153 -163 -255 -245 -250 -293 -51 -0 -0 -391 -324 -344 -377 -327 -287 -222 -179 -175 -139 -144 -150 -159 -142 -100
-0 -0 -0 -0 -0 -0 -0 -0 -0 -0 -0 -0 -0 -0 -0 -0 -0 -0 -0 -0 -0 -0 -0 -0 -225 -257 -237 -239 -239 -244 -43 -0 -0 -0 -0 -315 -359 -342 -286 -229 -172 -144 -146 -136 -120 -130 -140 -132 -97
-0 -0 -0 -0 -0 -0 -0 -0 -0 -0 -0 -0 -0 -0 -0 -0 -0 -0 -0 -0 -0 -0 -0 -0 -38 -229 -235 -136 -0 -0 -0 -0 -0 -0 -353 -302 -308 -260 -220 -168 -153 -138 -136 -127 -118 -121 -125 -110 -117
-0 -0 -0 -0 -0 -0 -0 -0 -0 -0 -0 -0 -0 -0 -0 -0 -0 -0 -0 -0 -0 -0 -0 -124 -0 -0 -0 -0 -0 -0 -0 -0 -0 -0 -307 -294 -231 -208 -177 -144 -142 -124 -119 -115 -112 -102 -87 -90 -96
-0 -0 -0 -0 -0 -0 -0 -0 -0 -0 -0 -0 -0 -0 -0 -0 -0 -0 -0 -0 -0 -0 -0 -0 -0 -0 -0 -0 -0 -0 -0 -0 -0 -240 -250 -230 -173 -174 -141 -130 -134 -132 -90 -102 -100 -71 -75 -86 -41
-0 -0 -0 -6 -0 -0 -0 -0 -0 -0 -0 -0 -0 -0 -0 -0 -0 -0 -0 -0 -0 -0 -0 -0 -0 -0 -0 -0 -0 -0 -0 -104 -379 -264 -194 -177 -169 -133 -118 -124 -133 -116 -100 -98 -75 -66 -51 -41 -32
-0 -9 -3 -4 -0 -0 -0 -0 -0 -0 -0 -0 -0 -0 -0 -0 -0 -0 -0 -0 -0 -0 -0 -0 -0 -0 -0 -0 -0 -0 -0 -334 -246 -198 -198 -163 -140 -107 -118 -133 -121 -104 -87 -100 -67 -63 -55 -28 -37
-0 -1 -37 -0 -0 -0 -3 -0 -0 -0 -0 -0 -0 -0 -0 -0 -0 -0 -0 -0 -0 -91 -108 -83 -85 -75 -0 -0 -0 -186 -298 -240 -172 -158 -194 -151 -111 -108 -107 -120 -103 -74 -87 -81 -62 -56 -65 -64 -110
-0 -0 -0 -0 -0 -4 -7 -0 -0 -0 -0 -0 -0 -0 -0 -0 -0 -0 -0 -0 -46 -99 -94 -119 -137 -168 -199 -213 -204 -214 -163 -134 -113 -144 -186 -111 -104 -120 -116 -85 -65 -53 -56 -64 -61 -79 -115 -91 -85
Wind_Speed
22 21 18 16 19 20 24 25 27 29 22 20 31 24 8 2 1 16 6 14 20 24 27 28 28 27 28 27 26 25 24 25 25 24 25 24 24 24 24 23 23 23 22 22 22 21 21 21 20
20 17 17 17 22 24 27 29 35 28 29 35 38 29 13 8 12 7 7 14 20 24 25 26 26 26 26 26 26 25 24 24 25 24 23 22 21 22 22 21 21 21 20 20 20 20 20 20 20
17 16 19 21 24 27 24 23 22 26 33 33 28 16 13 11 12 5 3 15 20 21 24 26 26 24 24 25 25 24 23 23 23 23 22 21 20 20 19 19 18 18 18 18 18 18 18 19 19
18 17 20 27 32 32 34 32 30 31 30 28 25 21 16 5 3 3 11 15 20 20 22 23 23 22 22 23 23 23 23 22 22 21 20 20 18 18 17 16 16 15 15 15 15 15 16 16 17
18 20 25 30 35 35 34 32 31 31 30 29 28 23 13 2 1 8 13 18 19 17 19 19 21 20 20 21 23 22 22 20 20 19 18 18 16 16 15 14 13 13 12 12 12 12 12 13 14
22 22 26 33 36 35 33 31 29 28 29 29 26 22 14 6 5 10 14 18 19 20 18 18 19 18 18 19 21 20 19 19 18 17 16 15 14 13 12 11 11 10 10 9 9 9 9 10 11
27 27 31 31 34 37 33 27 30 26 29 26 23 20 19 11 5 10 13 13 15 15 16 16 15 16 16 17 19 19 18 16 16 16 15 14 12 11 10 9 8 8 7 7 6 6 6 7 9
27 30 39 35 34 37 31 28 28 28 27 22 21 21 19 13 9 6 8 8 12 13 14 13 11 11 11 13 17 18 16 15 14 14 12 11 11 10 9 7 6 6 5 4 3 3 3 5 6
22 38 40 38 36 35 32 33 33 29 25 24 19 19 17 11 7 7 8 10 11 12 12 12 11 10 10 10 11 14 15 14 13 11 10 9 8 8 7 5 4 4 4 2 1 1 2 3 4
26 43 44 28 34 37 39 40 38 35 34 28 22 18 17 3 6 9 8 11 13 14 13 14 13 11 9 7 8 11 11 11 11 10 8 6 5 6 5 3 3 2 2 2 2 2 2 3 4
27 48 31 36 37 37 42 47 39 40 41 34 25 24 21 13 14 11 10 10 14 14 13 14 15 12 11 8 7 8 8 8 8 8 7 4 2 3 3 1 1 1 3 4 3 4 4 4 4
37 36 35 41 43 43 47 48 48 44 48 44 35 28 22 21 24 26 25 14 14 13 15 15 16 15 14 10 10 8 7 8 7 8 6 3 2 2 3 3 3 3 4 5 5 5 5 5 5
39 41 41 44 45 44 43 51 50 54 49 45 44 36 29 25 26 25 23 27 22 21 17 16 17 16 14 13 12 10 8 8 7 6 4 3 4 4 4 4 4 4 5 6 5 5 5 5 5
30 34 37 37 41 40 44 49 47 59 49 47 47 44 37 32 31 19 18 19 26 22 22 20 20 19 15 13 10 11 10 7 6 6 5 5 4 4 4 5 5 6 5 6 6 5 4 5 6
33 39 40 38 34 37 37 50 52 48 45 48 49 49 44 37 35 37 18 18 15 14 17 22 21 18 17 16 15 10 8 6 7 7 6 6 5 5 6 6 7 8 6 7 7 6 6 6 7
32 32 36 26 30 32 30 52 49 45 48 52 48 47 50 47 42 40 34 24 23 17 16 15 20 23 19 21 19 14 12 11 11 11 9 8 7 8 8 9 10 9 8 7 8 7 7 6 5
26 34 35 33 25 30 31 48 38 36 38 47 52 52 49 50 43 42 43 30 25 25 20 20 19 20 24 25 23 20 15 14 14 14 12 11 10 10 10 11 13 10 9 9 9 8 7 7 5
34 36 33 33 29 31 38 48 39 38 38 40 40 41 47 55 57 49 47 47 35 28 25 21 19 20 18 22 21 20 19 18 18 17 14 14 13 13 12 14 13 11 10 10 9 8 7 9 5
31 34 36 34 31 36 42 49 46 40 40 43 44 44 45 44 50 53 47 47 48 38 32 34 35 30 25 26 24 25 23 22 20 18 16 16 16 15 15 15 14 13 11 10 9 8 8 7 6
33 36 39 36 37 40 43 55 52 46 43 44 46 47 45 46 46 48 48 50 48 44 39 37 37 33 29 28 27 25 22 24 19 19 18 18 19 17 16 15 14 11 10 10 8 7 9 7 4
31 34 38 41 41 37 40 57 50 48 46 44 45 46 46 46 48 48 47 47 50 45 37 33 32 34 32 30 27 26 24 24 20 22 25 26 22 18 16 14 12 10 9 8 8 6 6 7 6
34 32 38 42 43 46 36 59 53 50 49 46 46 45 47 49 47 47 47 48 49 46 40 35 29 29 31 28 27 27 27 27 26 30 31 30 25 19 15 14 11 9 7 8 8 5 5 6 6
30 33 39 41 44 44 44 49 54 50 57 54 52 52 53 51 50 50 49 48 48 48 46 40 36 32 32 30 27 24 27 33 34 32 31 30 25 18 15 12 9 8 9 9 4 4 4 6 6
29 35 39 37 37 48 42 45 65 50 52 53 50 50 48 48 48 49 50 47 47 47 44 37 34 32 29 28 25 24 22 29 32 32 29 26 22 15 12 9 8 7 8 6 3 3 3 4 7
30 36 43 40 36 43 29 41 48 48 47 50 43 41 43 45 46 48 49 50 48 47 43 36 32 29 28 28 27 26 26 24 27 30 26 26 18 15 10 7 7 7 6 3 3 3 3 4 6
31 29 37 46 44 48 44 43 41 41 43 36 37 39 42 44 45 48 50 49 49 47 42 35 32 33 31 30 30 26 26 27 30 28 23 20 15 12 8 7 6 5 4 3 3 3 3 4 6
30 32 28 35 37 42 42 42 40 29 33 34 37 39 42 44 45 47 48 47 52 49 42 33 33 34 33 32 29 26 28 30 27 22 18 16 14 10 8 6 5 5 3 2 2 3 3 5 6
18 19 26 24 34 38 32 35 36 34 35 37 40 44 46 46 44 42 39 39 41 40 39 34 33 35 29 27 28 27 27 27 23 19 16 13 11 9 7 6 5 3 2 0 1 3 4 4 5
19 19 22 23 24 30 33 31 29 36 37 38 43 44 45 45 40 35 35 35 36 26 27 30 29 26 27 24 25 27 24 23 18 15 14 12 10 8 6 5 3 2 1 2 2 3 4 3 3
5 11 18 23 25 29 33 41 30 32 35 39 45 46 44 38 34 32 28 32 30 27 25 27 29 29 27 24 23 23 20 20 16 14 14 11 9 7 5 3 3 2 3 2 2 4 3 3 4
Wind_Direction
291 283 281 281 268 269 260 256 248 232 261 280 288 282 318 321 230 295 322 125 125 124 129 131 127 117 112 110 108 104 100 102 98 95 96 96 92 88 89 88 86 82 79 77 75 70 67 62 58
295 284 281 274 262 260 257 247 228 246 266 280 281 267 293 301 292 327 106 129 130 127 130 130 128 119 114 114 113 112 108 108 109 107 102 100 92 92 91 92 90 85 84 81 78 73 68 62 57
298 283 270 264 260 253 257 249 254 267 279 284 283 283 288 285 293 119 152 137 135 132 133 134 133 123 117 118 118 117 115 113 113 111 108 107 101 97 98 98 94 90 87 84 81 78 72 64 58
284 281 275 260 254 250 247 249 264 276 284 291 294 272 293 299 156 205 142 142 141 138 138 139 137 128 121 122 121 122 121 118 117 114 114 113 109 106 104 104 100 95 92 89 85 83 76 67 61
290 274 266 260 255 251 254 258 268 274 281 287 297 280 278 271 325 140 150 147 148 146 142 142 140 133 126 126 128 127 126 123 123 120 116 117 113 113 109 110 107 104 102 96 91 87 78 69 64
274 269 266 259 256 254 257 262 271 276 282 290 295 293 271 273 151 146 148 156 156 151 150 149 145 142 134 131 133 132 128 127 126 126 123 120 115 115 114 118 116 113 114 107 98 88 84 68 57
265 265 262 265 260 257 255 265 268 279 285 293 300 308 283 250 188 158 154 158 166 164 156 156 152 146 141 137 138 137 134 131 130 131 131 129 122 121 119 124 125 126 125 117 109 95 83 64 49
265 266 259 261 262 256 260 263 267 280 285 299 284 299 296 259 249 223 206 194 186 181 172 172 163 155 149 142 143 142 140 138 136 136 132 129 131 132 131 126 134 146 145 134 115 92 75 50 38
273 256 256 258 260 258 264 264 263 279 287 299 296 284 288 272 242 214 195 214 201 201 193 190 182 173 162 154 148 145 144 146 144 141 138 133 132 141 141 135 146 161 176 171 170 116 29 17 18
260 254 256 270 265 267 263 261 263 273 276 278 300 306 300 329 202 209 203 202 213 211 206 199 197 189 187 184 165 154 148 147 150 151 147 138 137 152 156 154 169 188 221 248 244 260 322 340 347
268 256 270 268 268 271 266 259 266 265 261 266 287 294 302 297 272 242 226 210 196 201 217 206 198 207 198 207 205 171 160 157 159 163 169 162 148 165 178 180 226 272 262 298 285 286 302 315 316
267 270 273 269 265 268 264 265 260 261 255 263 275 286 293 283 274 279 263 225 214 205 220 211 200 200 204 222 213 202 189 178 179 185 189 195 242 241 243 282 271 290 295 303 296 291 282 293 295
266 269 270 266 263 267 270 262 262 259 261 265 267 274 279 285 280 292 269 260 251 252 236 227 230 224 222 216 207 228 217 204 200 202 218 243 283 280 279 274 275 295 306 315 307 292 279 289 293
279 279 277 276 271 274 270 265 265 249 263 267 265 267 270 275 276 287 287 276 260 253 244 237 237 238 230 226 224 230 195 220 240 232 236 245 281 280 297 293 289 309 303 313 314 307 286 294 316
281 275 277 276 279 276 278 265 259 263 270 270 269 267 267 269 271 268 277 279 271 252 243 240 233 228 232 228 248 239 257 250 251 246 252 252 278 291 306 306 308 311 309 312 317 314 316 319 324
282 281 277 287 285 281 276 265 263 270 269 266 270 267 264 265 266 266 271 275 275 255 251 245 241 237 232 244 250 258 263 264 272 277 271 266 284 290 304 309 315 312 311 309 313 312 309 312 316
287 279 280 286 295 284 273 269 274 279 276 268 266 266 267 264 266 265 265 271 268 267 256 240 238 237 247 253 256 262 263 268 276 285 272 279 282 291 300 305 315 309 307 303 311 308 310 319 310
284 283 286 286 291 291 279 271 278 279 279 276 276 276 270 262 259 263 263 263 268 268 265 239 227 236 240 257 253 261 265 269 279 282 276 275 290 295 295 306 307 305 297 301 304 305 304 322 300
291 289 287 291 292 286 282 276 276 280 280 278 277 277 275 275 267 262 261 262 262 264 262 258 257 252 247 246 255 266 264 269 273 274 268 270 283 292 297 302 303 300 282 287 293 302 308 320 331
296 293 291 293 294 291 284 273 274 278 279 279 278 276 277 277 275 271 268 260 262 263 261 261 257 256 247 243 256 265 264 271 262 268 269 280 287 290 295 298 300 294 287 287 285 298 318 321 334
301 299 297 293 295 295 292 274 276 277 281 281 279 278 277 278 276 274 274 267 259 261 259 261 257 252 246 248 258 267 272 282 280 283 286 290 291 288 289 295 296 290 284 285 294 291 301 318 326
300 308 302 296 293 285 294 277 278 281 280 280 281 280 279 277 278 276 275 273 264 257 260 259 257 247 245 247 252 256 263 269 281 288 291 294 294 296 288 290 291 289 289 290 293 290 309 325 320
308 313 306 299 291 289 283 282 277 283 279 279 281 281 279 277 276 274 274 274 269 261 259 261 258 254 247 244 249 251 267 275 283 288 294 296 296 293 290 287 282 282 292 294 279 298 319 329 325
322 313 309 307 294 283 287 283 273 281 282 283 285 282 282 279 277 274 273 275 271 264 259 260 252 253 245 247 250 253 257 275 280 285 291 294 296 292 288 280 281 288 294 287 263 299 322 331 339
323 312 303 298 294 287 298 290 283 288 291 289 287 286 287 285 280 275 273 271 270 267 261 255 248 245 244 250 255 261 265 267 274 281 284 290 288 285 273 270 277 288 283 283 301 308 325 340 339
319 315 301 291 290 290 295 287 289 297 300 294 294 294 292 289 285 276 270 270 268 266 260 251 248 248 248 253 260 261 266 271 275 276 280 283 271 266 256 264 274 288 266 295 323 335 346 355 356
323 313 313 297 292 292 292 292 295 305 306 305 299 298 296 291 285 276 271 272 265 261 259 250 249 251 254 258 262 264 270 273 272 270 273 272 263 252 247 257 268 284 260 288 335 2 8 0 357
342 340 318 312 296 294 296 295 295 304 303 307 307 300 296 291 287 277 272 275 269 261 255 250 251 253 254 256 263 265 268 271 269 262 262 257 252 245 238 256 277 253 204 311 64 19 9 7 8
344 337 324 316 310 302 298 300 298 283 298 302 305 304 296 287 283 274 267 271 275 262 253 250 251 252 255 258 262 268 269 267 262 251 252 246 240 233 231 251 234 204 166 120 65 17 2 32 52
352 347 330 317 306 310 305 285 298 306 310 308 305 306 296 284 270 256 269 274 270 262 258 257 257 257 259 260 264 263 264 263 253 248 251 237 225 231 225 197 195 169 139 107 5 352 11 78 91